Tehachapi, CA

9:17 PM PDT on July 25, 2017 (GMT -0700)
Tehachapi Municipal

Weather History for KTSP - October, 2013

Change the Weather History Date:

Wednesday, October 9, 2013

  Actual Average Record
Temperature  
Mean Temperature 45 °F -  
Max Temperature 51 °F 72 °F 87 °F (2015)
Min Temperature 39 °F 44 °F 37 °F (2011)
Degree Days  
Heating Degree Days 20    
Moisture  
Dew Point 34 °F    
Average Humidity 68    
Maximum Humidity 100    
Minimum Humidity 35    
Precipitation  
Precipitation 0.87 in - - ()
Sea Level Pressure  
Sea Level Pressure 29.71 in    
Wind  
Wind Speed 9 mph (WNW)    
Max Wind Speed 16 mph    
Max Gust Speed 21 mph    
Visibility 7 miles    
Events Rain , Thunderstorm    
Averages and records for this station are not official NWS values.
T = Trace of Precipitation, MM = Missing Value Source: NWS Daily Summary

Daily Weather History Graph

Daily Weather History Graph

Search for Another Location

Airport or City:

Trip Planner

Search our weather history database for the weather conditions in past years. The results will help you decide how hot, cold, wet, or windy it might be!

Date:

Astronomy

Oct. 09, 2013 Rise Set
Actual Time 6:55 AM PDT 6:26 PM PDT
Civil Twilight 6:29 AM PDT 6:51 PM PDT
Nautical Twilight 6:00 AM PDT 7:20 PM PDT
Astronomical Twilight 5:30 AM PDT 7:50 PM PDT
Moon 11:46 AM PDT (10/9) 10:14 PM PDT (10/9)
Length of Visible Light 12h 21m
Length of Day
11h 30m
Waxing Crescent, 26% of the Moon is Illuminated
Oct 9
Waxing Crescent
Oct 11
First Quarter
Oct 18
Full
Oct 26
Last Quarter
Nov 3
New

Hourly Weather History & Observations

Time (PDT) Temp. Windchill Dew Point Humidity Pressure Visibility Wind Dir Wind Speed Gust Speed Precip Events Conditions
12:15 AM 50.0 °F - 26.6 °F 40% 29.79 in 10.0 mi West 9.2 mph - N/A   Clear
12:35 AM 51.8 °F - 24.8 °F 35% 29.78 in 10.0 mi WNW 11.5 mph - N/A   Clear
12:55 AM 50.0 °F - 24.8 °F 37% 29.77 in 10.0 mi West 9.2 mph - N/A   Clear
1:15 AM 50.0 °F - 24.8 °F 37% 29.76 in 10.0 mi West 11.5 mph - N/A   Clear
1:35 AM 50.0 °F - 28.4 °F 43% 29.76 in 10.0 mi WNW 12.7 mph - N/A   Clear
1:55 AM 50.0 °F - 30.2 °F 47% 29.75 in 10.0 mi West 9.2 mph - N/A   Clear
2:15 AM 48.2 °F - 30.2 °F 50% 29.74 in 10.0 mi West 9.2 mph - N/A   Clear
2:35 AM 48.2 °F - 30.2 °F 50% 29.73 in 10.0 mi West 9.2 mph - N/A   Clear
2:55 AM 48.2 °F - 30.2 °F 50% 29.72 in 10.0 mi WNW 6.9 mph - N/A   Clear
3:15 AM 48.2 °F - 30.2 °F 50% 29.72 in 10.0 mi WNW 6.9 mph - N/A   Partly Cloudy
3:35 AM 48.2 °F - 30.2 °F 50% 29.71 in 10.0 mi WNW 4.6 mph - N/A   Clear
3:55 AM 46.4 °F 44.3 °F 30.2 °F 53% 29.70 in 10.0 mi NW 4.6 mph - N/A   Clear
4:15 AM 46.4 °F 43.5 °F 30.2 °F 53% 29.70 in 10.0 mi NW 5.8 mph - N/A   Clear
4:35 AM 46.4 °F 42.9 °F 30.2 °F 53% 29.69 in 10.0 mi NW 6.9 mph - N/A   Clear
4:55 AM 46.4 °F 43.5 °F 30.2 °F 53% 29.69 in 10.0 mi West 5.8 mph - N/A   Clear
5:15 AM 46.4 °F 42.9 °F 30.2 °F 53% 29.68 in 10.0 mi WNW 6.9 mph - N/A   Clear
5:35 AM 46.4 °F 42.9 °F 28.4 °F 50% 29.68 in 10.0 mi West 6.9 mph - N/A   Clear
5:55 AM 48.2 °F - 30.2 °F 50% 29.68 in 10.0 mi WNW 15.0 mph - N/A   Clear
6:15 AM 46.4 °F 40.7 °F 32.0 °F 57% 29.68 in 10.0 mi NW 12.7 mph - N/A   Clear
6:35 AM 44.6 °F 39.7 °F 32.0 °F 61% 29.68 in 10.0 mi West 9.2 mph - N/A   Clear
6:55 AM 41.0 °F 35.8 °F 32.0 °F 70% 29.68 in 8.0 mi West 8.1 mph - N/A   Clear
7:15 AM 41.0 °F 35.8 °F 32.0 °F 70% 29.69 in 7.0 mi WSW 8.1 mph - N/A   Clear
7:35 AM 41.0 °F 35.8 °F 33.8 °F 76% 29.70 in 7.0 mi WNW 8.1 mph - N/A   Clear
7:55 AM 42.8 °F 39.3 °F 33.8 °F 70% 29.69 in 8.0 mi West 5.8 mph - N/A   Clear
8:15 AM 44.6 °F 41.4 °F 33.8 °F 66% 29.70 in 7.0 mi WNW 5.8 mph - N/A   Clear
8:35 AM 46.4 °F 42.4 °F 33.8 °F 62% 29.70 in 8.0 mi NW 8.1 mph - N/A   Scattered Clouds
8:55 AM 46.4 °F 42.4 °F 33.8 °F 62% 29.70 in 9.0 mi WNW 8.1 mph - N/A   Overcast
9:15 AM 48.2 °F - 33.8 °F 58% 29.70 in 9.0 mi NW 9.2 mph - N/A   Overcast
9:35 AM 50.0 °F - 33.8 °F 54% 29.71 in 9.0 mi NW 16.1 mph - N/A   Overcast
9:55 AM 48.2 °F - 33.8 °F 58% 29.71 in 8.0 mi NNW 15.0 mph - N/A   Overcast
10:15 AM 50.0 °F - 32.0 °F 50% 29.71 in 8.0 mi NW 12.7 mph 17.3 mph N/A   Overcast
10:35 AM 50.0 °F - 32.0 °F 50% 29.71 in 8.0 mi NNW 12.7 mph 17.3 mph N/A   Overcast
10:55 AM 51.8 °F - 32.0 °F 47% 29.70 in 9.0 mi NNW 13.8 mph 20.7 mph N/A   Mostly Cloudy
11:15 AM 51.8 °F - 33.8 °F 50% 29.70 in 7.0 mi NW 15.0 mph 20.7 mph N/A   Mostly Cloudy
11:35 AM 48.2 °F - 33.8 °F 58% 29.71 in 6.0 mi NW 13.8 mph 19.6 mph N/A   Haze
11:55 AM 48.2 °F - 33.8 °F 58% 29.71 in 6.0 mi NW 10.4 mph - N/A   Haze
12:15 PM 50.0 °F - 33.8 °F 54% 29.70 in 6.0 mi WNW 4.6 mph - N/A Rain Light Rain
12:35 PM 50.0 °F - 35.6 °F 58% 29.69 in 5.0 mi NW 4.6 mph - N/A Rain Light Rain
12:55 PM 50.0 °F - 35.6 °F 58% 29.68 in 6.0 mi WNW 5.8 mph - N/A   Haze
1:15 PM 50.0 °F - 35.6 °F 58% 29.67 in 7.0 mi NW 6.9 mph - N/A   Overcast
1:55 PM 50.0 °F - 35.6 °F 58% 29.66 in 6.0 mi NNW 8.1 mph - N/A   Haze
2:15 PM 48.2 °F - 35.6 °F 62% 29.65 in 6.0 mi NNW 13.8 mph 18.4 mph N/A   Haze
2:35 PM 48.2 °F - 37.4 °F 66% 29.65 in 3.0 mi NNW 5.8 mph 17.3 mph N/A Rain Light Rain
2:55 PM 46.4 °F 40.4 °F 39.2 °F 76% 29.65 in 1.5 mi NW 13.8 mph - 0.03 in Rain Light Rain
3:15 PM 44.6 °F 41.4 °F 39.2 °F 81% 29.66 in 2.0 mi NW 5.8 mph - 0.02 in Rain Rain
3:35 PM 42.8 °F 39.3 °F 39.2 °F 87% 29.67 in 0.8 mi NW 5.8 mph 18.4 mph 0.30 in Rain , Thunderstorm Heavy Rain
3:55 PM 41.0 °F 37.1 °F 39.2 °F 93% 29.68 in 3.0 mi NW 5.8 mph - 0.40 in Rain Light Rain
4:15 PM 41.0 °F 36.4 °F 37.4 °F 87% 29.68 in 1.8 mi NW 6.9 mph - 0.01 in Rain Light Rain
4:55 PM 39.2 °F 34.2 °F 37.4 °F 93% 29.70 in 1.0 mi West 6.9 mph - 0.22 in Rain Heavy Rain
5:15 PM 39.2 °F 34.2 °F 37.4 °F 93% 29.70 in 1.8 mi NW 6.9 mph - 0.05 in Rain Rain
5:35 PM 39.2 °F 37.0 °F 37.4 °F 93% 29.70 in 1.2 mi West 3.5 mph - 0.13 in Rain Rain
5:55 PM 39.2 °F 31.6 °F 35.6 °F 87% 29.70 in 3.0 mi West 12.7 mph - 0.15 in Rain Light Rain
6:15 PM 39.2 °F 34.2 °F 35.6 °F 87% 29.70 in 9.0 mi West 6.9 mph - N/A   Mostly Cloudy
6:35 PM 39.2 °F 32.5 °F 35.6 °F 87% 29.70 in 10.0 mi West 10.4 mph - N/A   Overcast
6:55 PM 39.2 °F 33.6 °F 35.6 °F 87% 29.71 in 8.0 mi WNW 8.1 mph - N/A Rain Light Rain
7:15 PM 39.2 °F 32.0 °F 37.4 °F 93% 29.72 in 2.0 mi NW 11.5 mph - 0.04 in Rain Rain
7:35 PM 39.2 °F 35.0 °F 37.4 °F 93% 29.71 in 8.0 mi West 5.8 mph - 0.07 in Rain Light Rain
7:55 PM 39.2 °F 35.0 °F 37.4 °F 93% 29.71 in 10.0 mi West 5.8 mph - 0.07 in   Overcast
8:15 PM 39.2 °F 35.9 °F 35.6 °F 87% 29.72 in 10.0 mi WNW 4.6 mph - N/A   Overcast
8:35 PM 39.2 °F 33.6 °F 35.6 °F 87% 29.72 in 10.0 mi WNW 8.1 mph - N/A   Mostly Cloudy
8:55 PM 39.2 °F 33.6 °F 35.6 °F 87% 29.74 in 10.0 mi West 8.1 mph - N/A   Mostly Cloudy
9:15 PM 39.2 °F 33.0 °F 37.4 °F 93% 29.74 in 10.0 mi West 9.2 mph - N/A   Overcast
9:55 PM 39.2 °F 33.0 °F 37.4 °F 93% 29.76 in 9.0 mi West 9.2 mph - N/A   Overcast
10:15 PM 41.0 °F 35.2 °F 37.4 °F 87% 29.77 in 8.0 mi WNW 9.2 mph - N/A   Overcast
10:35 PM 39.2 °F 31.6 °F 39.2 °F 100% 29.78 in 6.0 mi NW 12.7 mph - N/A   Overcast
10:55 PM 39.2 °F 33.0 °F 39.2 °F 100% 29.79 in 5.0 mi NW 9.2 mph - N/A   Overcast
11:15 PM 39.2 °F 33.6 °F 39.2 °F 100% 29.79 in 5.0 mi WNW 8.1 mph - N/A   Mostly Cloudy
11:35 PM 39.2 °F 33.0 °F 39.2 °F 100% 29.79 in 5.0 mi WNW 9.2 mph - N/A   Overcast
11:55 PM 39.2 °F 35.0 °F 37.4 °F 93% 29.80 in 8.0 mi WNW 5.8 mph - N/A   Overcast